Location: Wiler
(46.4041°N, 7.7840°E)
Time: 03:47:14
(UTC+00:00)

STARLINK-1198 - Pass Details

Date: 09 April 2020
Orbit: 549 x 551 km, 53.0° (Epoch: 26 May)

Event Time Altitude Azimuth Distance (km) Brightness Sun altitude
Rises 19:43:36 0° 297° (WNW) 2,783 9.1 -15.9°
Reaches altitude 10° 19:45:56 10° 290° (WNW) 1,882 7.6 -16.3°
Maximum altitude 19:49:58 40° 221° (SW) 845 4.6 -16.9°
Enters shadow 19:51:56 25° 168° (SSE) 1,176 4.9 -17.2°
